• In Uzbekistan
  • List of Countries
  • For 7 days
  • Water Temperature
  • Satellite Maps
  • Weather Map
  • Weather Widgets
  • user-avatar
    Login

    Hourly Weather Livingstone

    Today, 18 November, Saturday

    Time Temperature Precipitation Wind Pressure Humidity
    00:00 +24°C° 0 mm 1 mps 682 mmHg 22%
    01:00 +23°C° 0 mm 1 mps 682 mmHg 24%
    02:00 +23°C° 0 mm 1 mps 682 mmHg 25%
    03:00 +22°C° 0 mm 1 mps 682 mmHg 25%
    04:00 +22°C° 0 mm 1 mps 682 mmHg 25%
    05:00 +21°C° 0 mm 1 mps 682 mmHg 24%
    06:00 +23°C° 0 mm 1 mps 683 mmHg 25%
    07:00 +25°C° 0 mm 1 mps 683 mmHg 25%
    08:00 +27°C° 0 mm 1 mps 684 mmHg 25%
    09:00 +30°C° 0 mm 1 mps 684 mmHg 23%
    10:00 +33°C° 0 mm 1 mps 684 mmHg 20%
    11:00 +36°C° 0 mm 1 mps 685 mmHg 18%
    12:00 +37°C° 0 mm 1 mps 684 mmHg 16%
    13:00 +39°C° 0 mm 1 mps 684 mmHg 15%
    14:00 +38°C° 0 mm 0 mps 683 mmHg 14%
    15:00 +39°C° 0 mm 1 mps 682 mmHg 15%
    16:00 +36°C° 0 mm 1 mps 682 mmHg 16%
    17:00 +35°C° 0 mm 1 mps 681 mmHg 18%
    18:00 +34°C° 0 mm 2 mps 681 mmHg 23%
    19:00 +32°C° 0 mm 2 mps 682 mmHg 28%
    20:00 +30°C° 0 mm 3 mps 682 mmHg 34%
    21:00 +29°C° 0 mm 2 mps 682 mmHg 38%
    22:00 +28°C° 0 mm 2 mps 682 mmHg 42%
    23:00 +28°C° 0 mm 2 mps 683 mmHg 47%

    Tomorrow, 19 November, Sunday

    Time Temperature Precipitation Wind Pressure Humidity
    00:00 +27°C° 0 mm 2 mps 682 mmHg 49%
    01:00 +26°C° 0 mm 2 mps 682 mmHg 52%
    02:00 +26°C° 0 mm 1 mps 682 mmHg 54%
    03:00 +25°C° 0 mm 1 mps 682 mmHg 56%
    04:00 +24°C° 0 mm 1 mps 682 mmHg 59%
    05:00 +24°C° 0 mm 1 mps 682 mmHg 61%
    06:00 +25°C° 0 mm 2 mps 683 mmHg 57%
    07:00 +27°C° 0 mm 3 mps 684 mmHg 52%
    08:00 +29°C° 0 mm 3 mps 685 mmHg 47%
    09:00 +31°C° 0 mm 3 mps 685 mmHg 40%
    10:00 +34°C° 0 mm 3 mps 685 mmHg 33%
    11:00 +36°C° 0 mm 3 mps 685 mmHg 26%
    12:00 +37°C° 0 mm 3 mps 684 mmHg 24%
    13:00 +37°C° 0 mm 4 mps 683 mmHg 22%
    14:00 +38°C° 0 mm 4 mps 683 mmHg 20%
    15:00 +37°C° 0 mm 4 mps 682 mmHg 22%
    16:00 +36°C° 0 mm 4 mps 682 mmHg 23%
    17:00 +35°C° 0 mm 4 mps 681 mmHg 25%
    18:00 +34°C° 0 mm 4 mps 682 mmHg 29%
    19:00 +31°C° 0 mm 3 mps 682 mmHg 33%
    20:00 +30°C° 0 mm 3 mps 682 mmHg 37%
    21:00 +29°C° 0 mm 3 mps 683 mmHg 40%
    22:00 +28°C° 0 mm 3 mps 683 mmHg 43%
    23:00 +27°C° 0 mm 2 mps 683 mmHg 46%

    Day after tomorrow, 20 November, Monday

    Time Temperature Precipitation Wind Pressure Humidity
    00:00 +27°C° 0 mm 2 mps 683 mmHg 48%
    01:00 +26°C° 0 mm 2 mps 682 mmHg 50%
    02:00 +26°C° 0 mm 2 mps 682 mmHg 52%
    03:00 +25°C° 0 mm 2 mps 682 mmHg 54%
    04:00 +25°C° 0 mm 2 mps 682 mmHg 56%
    05:00 +25°C° 0 mm 2 mps 682 mmHg 58%
    06:00 +26°C° 0 mm 3 mps 683 mmHg 54%
    07:00 +28°C° 0 mm 3 mps 684 mmHg 50%
    08:00 +29°C° 0 mm 4 mps 685 mmHg 46%
    09:00 +32°C° 0 mm 4 mps 685 mmHg 39%
    10:00 +35°C° 0 mm 4 mps 685 mmHg 32%
    11:00 +37°C° 0 mm 4 mps 685 mmHg 25%
    12:00 +37°C° 0 mm 3 mps 684 mmHg 23%
    13:00 +38°C° 0 mm 3 mps 683 mmHg 21%
    14:00 +38°C° 0 mm 3 mps 683 mmHg 20%
    15:00 +37°C° 0 mm 3 mps 682 mmHg 21%
    16:00 +36°C° 0 mm 2 mps 682 mmHg 22%
    17:00 +36°C° 0 mm 2 mps 681 mmHg 24%
    18:00 +34°C° 0 mm 2 mps 682 mmHg 27%
    19:00 +32°C° 0 mm 2 mps 682 mmHg 31%
    20:00 +31°C° 0 mm 2 mps 682 mmHg 34%
    21:00 +30°C° 0 mm 2 mps 682 mmHg 37%
    22:00 +29°C° 0 mm 2 mps 682 mmHg 40%
    23:00 +28°C° 0 mm 2 mps 682 mmHg 43%

    21 November, Tuesday

    Time Temperature Precipitation Wind Pressure Humidity
    00:00 +27°C° 0 mm 2 mps 682 mmHg 44%
    01:00 +27°C° 0 mm 1 mps 681 mmHg 46%
    02:00 +26°C° 0 mm 1 mps 681 mmHg 47%
    03:00 +26°C° 0 mm 1 mps 681 mmHg 49%
    04:00 +25°C° 0 mm 1 mps 681 mmHg 50%
    05:00 +25°C° 0 mm 1 mps 681 mmHg 52%
    06:00 +27°C° 0 mm 2 mps 682 mmHg 48%
    07:00 +29°C° 0 mm 2 mps 683 mmHg 43%
    08:00 +30°C° 0 mm 2 mps 683 mmHg 39%
    09:00 +34°C° 0 mm 2 mps 683 mmHg 34%
    10:00 +36°C° 0 mm 2 mps 683 mmHg 28%
    11:00 +38°C° 0 mm 2 mps 684 mmHg 22%
    12:00 +39°C° 0 mm 2 mps 683 mmHg 21%
    13:00 +39°C° 0 mm 1 mps 682 mmHg 19%
    14:00 +39°C° 0 mm 1 mps 681 mmHg 18%
    15:00 +37°C° 0 mm 1 mps 681 mmHg 19%
    16:00 +36°C° 0 mm 1 mps 680 mmHg 20%
    17:00 +35°C° 0 mm 1 mps 680 mmHg 22%
    18:00 +34°C° 0 mm 1 mps 680 mmHg 24%
    19:00 +33°C° 0 mm 1 mps 680 mmHg 26%
    20:00 +32°C° 0 mm 1 mps 681 mmHg 27%
    21:00 +31°C° 0 mm 1 mps 681 mmHg 29%
    22:00 +30°C° 0 mm 1 mps 681 mmHg 31%
    23:00 +30°C° 0 mm 1 mps 681 mmHg 33%

    22 November, Wednesday

    Time Temperature Precipitation Wind Pressure Humidity
    00:00 +29°C° 0 mm 1 mps 680 mmHg 35%
    01:00 +29°C° 0 mm 1 mps 680 mmHg 36%
    02:00 +28°C° 0 mm 1 mps 680 mmHg 37%
    03:00 +28°C° 0 mm 1 mps 680 mmHg 39%
    04:00 +27°C° 0 mm 1 mps 680 mmHg 41%
    05:00 +27°C° 0 mm 1 mps 680 mmHg 43%
    06:00 +28°C° 0 mm 1 mps 681 mmHg 42%
    07:00 +29°C° 0 mm 1 mps 682 mmHg 40%
    08:00 +30°C° 0 mm 1 mps 682 mmHg 39%
    09:00 +33°C° 0 mm 1 mps 682 mmHg 34%
    10:00 +35°C° 0 mm 1 mps 683 mmHg 29%
    11:00 +37°C° 0 mm 1 mps 683 mmHg 25%
    12:00 +37°C° 0 mm 1 mps 682 mmHg 23%
    13:00 +39°C° 0 mm 1 mps 681 mmHg 22%
    14:00 +39°C° 0 mm 1 mps 680 mmHg 21%
    15:00 +37°C° 0 mm 1 mps 680 mmHg 22%
    16:00 +36°C° 0 mm 1 mps 680 mmHg 23%
    17:00 +36°C° 0 mm 1 mps 680 mmHg 23%
    18:00 +34°C° 0 mm 1 mps 680 mmHg 26%
    19:00 +33°C° 0 mm 1 mps 680 mmHg 29%
    20:00 +31°C° 0 mm 1 mps 680 mmHg 32%
    21:00 +31°C° 0 mm 1 mps 680 mmHg 34%
    22:00 +30°C° 0 mm 1 mps 680 mmHg 36%
    23:00 +30°C° 0 mm 1 mps 680 mmHg 38%

    23 November, Thursday

    Time Temperature Precipitation Wind Pressure Humidity
    00:00 +29°C° 0 mm 1 mps 680 mmHg 40%
    01:00 +29°C° 0 mm 2 mps 680 mmHg 43%
    02:00 +28°C° 0 mm 2 mps 680 mmHg 45%
    03:00 +28°C° 0 mm 2 mps 680 mmHg 49%
    04:00 +27°C° 0 mm 2 mps 680 mmHg 53%
    05:00 +27°C° 0 mm 1 mps 681 mmHg 57%
    06:00 +27°C° 0.1 mm 1 mps 681 mmHg 56%
    07:00 +28°C° 0.1 mm 1 mps 682 mmHg 55%
    08:00 +28°C° 0.1 mm 1 mps 683 mmHg 54%
    09:00 +29°C° 0 mm 2 mps 682 mmHg 51%
    10:00 +29°C° 0 mm 2 mps 682 mmHg 47%
    11:00 +30°C° 0 mm 2 mps 682 mmHg 44%
    12:00 +31°C° 0 mm 2 mps 682 mmHg 40%
    13:00 +32°C° 0 mm 2 mps 681 mmHg 37%
    14:00 +34°C° 0 mm 2 mps 681 mmHg 34%
    15:00 +34°C° 0 mm 2 mps 681 mmHg 32%
    16:00 +35°C° 0 mm 3 mps 681 mmHg 31%
    17:00 +35°C° 0 mm 3 mps 681 mmHg 29%
    18:00 +32°C° 0.2 mm 2 mps 681 mmHg 35%
    19:00 +30°C° 0.2 mm 2 mps 681 mmHg 41%
    20:00 +28°C° 0.2 mm 1 mps 681 mmHg 47%
    21:00 +28°C° 0.3 mm 1 mps 682 mmHg 51%
    22:00 +27°C° 0.3 mm 2 mps 682 mmHg 56%
    23:00 +26°C° 0.3 mm 2 mps 682 mmHg 61%
    Show more